User: anonymous   Login
Location: Fort Wayne
(41.1310°N, 85.1290°W)
Time: 18:12:50
(UTC-04:00)
Language:

Cosmos 1953 - Orbit

View from above orbital plane
View from above orbital plane
View from above satellite
View from above satellite

Ground track
Ground track

The orbit data is extracted from the following two-line orbital elements,

1 19210U 88050A   16272.09150884  .00000504  00000-0  33421-4 0  9993
2 19210  82.5149 287.4344 0015203  77.1756 283.1168 15.04946535538412
Epoch (UTC): 28 September 2016 02:11:46
Eccentricity: 0.0015203
inclination: 82.5149°
perigee height: 541 km
apogee height: 562 km
right ascension of ascending node: 287.4344°
argument of perigee: 77.1756°
revolutions per day: 15.04946535
mean anomaly at epoch: 283.1168°
orbit number at epoch: 53841

The dashed part of the orbit path shows where the satellite is in the earth's shadow,  

DLR